owner,sensor,date,latitude,longitude,vertical_datum,direction_of_sea_water_velocity,sea_water_speed,upward_sea_water_velocity,qcFlag 
TABS,ioos:station:wmo:42044:1,2004-12-01T00:00:00Z,26.1914,-97.0507,2.0,174.8590871,47.32033918,-99999.0,'11111222,11111222,99999999' 
TABS,ioos:station:wmo:42044:1,2004-12-01T00:30:00Z,26.1914,-97.0507,2.0,175.5090872,45.85076008,-99999.0,'11111222,11111222,99999999' 
TABS,ioos:station:wmo:42044:1,2004-12-01T01:00:00Z,26.1914,-97.0507,2.0,178.6899917,39.81040191,-99999.0,'11111222,11111222,99999999' 
TABS,ioos:station:wmo:42044:1,2004-12-01T01:30:00Z,26.1914,-97.0507,2.0,180.5164557,41.03166826,-99999.0,'11111222,11111222,99999999' 
TABS,ioos:station:wmo:42044:1,2004-12-01T02:00:00Z,26.1914,-97.0507,2.0,184.3596159,41.83104708,-99999.0,'11111222,11111222,99999999' 
TABS,ioos:station:wmo:42044:1,2004-12-01T02:30:00Z,26.1914,-97.0507,2.0,180.9233444,37.84491644,-99999.0,'11111222,11111222,99999999' 
TABS,ioos:station:wmo:42044:1,2004-12-01T03:00:00Z,26.1914,-97.0507,2.0,189.3852859,38.01894396,-99999.0,'11111222,11111222,99999999' 
TABS,ioos:station:wmo:42044:1,2004-12-01T03:30:00Z,26.1914,-97.0507,2.0,184.3999072,30.89104887,-99999.0,'11111222,11111222,99999999' 
TABS,ioos:station:wmo:42044:1,2004-12-01T04:00:00Z,26.1914,-97.0507,2.0,170.0192255,36.35010316,-99999.0,'11111222,11111222,99999999' 
TABS,ioos:station:wmo:42044:1,2004-12-01T04:30:00Z,26.1914,-97.0507,2.0,168.7054912,35.99711794,-99999.0,'11111222,11111222,99999999' 
TABS,ioos:station:wmo:42044:1,2004-12-01T05:00:00Z,26.1914,-97.0507,2.0,179.1616685,28.71307194,-99999.0,'11111222,11111222,99999999' 
TABS,ioos:station:wmo:42044:1,2004-12-01T05:30:00Z,26.1914,-97.0507,2.0,177.3494536,30.49261714,-99999.0,'11111222,11111222,99999999' 
TABS,ioos:station:wmo:42044:1,2004-12-01T06:00:00Z,26.1914,-97.0507,2.0,181.8530552,29.37536553,-99999.0,'11111222,11111222,99999999' 
TABS,ioos:station:wmo:42044:1,2004-12-01T06:30:00Z,26.1914,-97.0507,2.0,180.8539522,27.50305619,-99999.0,'11111222,11111222,99999999' 
TABS,ioos:station:wmo:42044:1,2004-12-01T07:00:00Z,26.1914,-97.0507,2.0,171.5765272,28.46707748,-99999.0,'11111222,11111222,99999999' 
TABS,ioos:station:wmo:42044:1,2004-12-01T07:30:00Z,26.1914,-97.0507,2.0,176.8364457,27.00114257,-99999.0,'11111222,11111222,99999999' 
TABS,ioos:station:wmo:42044:1,2004-12-01T08:00:00Z,26.1914,-97.0507,2.0,172.2699187,22.67605345,-99999.0,'11111222,11111222,99999999' 
TABS,ioos:station:wmo:42044:1,2004-12-01T08:30:00Z,26.1914,-97.0507,2.0,166.8710135,24.96247183,-99999.0,'11111222,11111222,99999999' 
TABS,ioos:station:wmo:42044:1,2004-12-01T09:00:00Z,26.1914,-97.0507,2.0,178.8892329,21.15397362,-99999.0,'11111222,11111222,99999999' 
TABS,ioos:station:wmo:42044:1,2004-12-01T09:30:00Z,26.1914,-97.0507,2.0,178.1206158,21.65164428,-99999.0,'11111222,11111222,99999999' 
TABS,ioos:station:wmo:42044:1,2004-12-01T10:00:00Z,26.1914,-97.0507,2.0,175.8491433,21.96761708,-99999.0,'11111222,11111222,99999999' 
TABS,ioos:station:wmo:42044:1,2004-12-01T10:30:00Z,26.1914,-97.0507,2.0,179.7501369,18.36017429,-99999.0,'11111222,11111222,99999999' 
TABS,ioos:station:wmo:42044:1,2004-12-01T11:00:00Z,26.1914,-97.0507,2.0,164.0816676,23.11641192,-99999.0,'11111222,11111222,99999999' 
TABS,ioos:station:wmo:42044:1,2004-12-01T11:30:00Z,26.1914,-97.0507,2.0,183.3256578,17.40932222,-99999.0,'11111222,11111222,99999999' 
TABS,ioos:station:wmo:42044:1,2004-12-01T12:00:00Z,26.1914,-97.0507,2.0,169.3518063,19.86200644,-99999.0,'11111222,11111222,99999999' 
TABS,ioos:station:wmo:42044:1,2004-12-01T12:30:00Z,26.1914,-97.0507,2.0,174.8590925,22.20933362,-99999.0,'11111222,11111222,99999999' 
TABS,ioos:station:wmo:42044:1,2004-12-01T13:00:00Z,26.1914,-97.0507,2.0,179.1124731,19.37232304,-99999.0,'11111222,11111222,99999999' 
TABS,ioos:station:wmo:42044:1,2004-12-01T13:30:00Z,26.1914,-97.0507,2.0,173.065862,18.96873744,-99999.0,'11111222,11111222,99999999' 
TABS,ioos:station:wmo:42044:1,2004-12-01T14:00:00Z,26.1914,-97.0507,2.0,173.0767845,18.99851836,-99999.0,'11111222,11111222,99999999' 
TABS,ioos:station:wmo:42044:1,2004-12-01T14:30:00Z,26.1914,-97.0507,2.0,176.8066058,19.02954545,-99999.0,'11111222,11111222,99999999' 
TABS,ioos:station:wmo:42044:1,2004-12-01T15:00:00Z,26.1914,-97.0507,2.0,175.9022278,17.07364343,-99999.0,'11111222,11111222,99999999' 
TABS,ioos:station:wmo:42044:1,2004-12-01T15:30:00Z,26.1914,-97.0507,2.0,159.1956213,20.80659991,-99999.0,'11111222,11111222,99999999' 
TABS,ioos:station:wmo:42044:1,2004-12-01T16:00:00Z,26.1914,-97.0507,2.0,164.5591008,19.49359382,-99999.0,'11111222,11111222,99999999' 
TABS,ioos:station:wmo:42044:1,2004-12-01T16:30:00Z,26.1914,-97.0507,2.0,168.7377196,18.79185462,-99999.0,'11111222,11111222,99999999' 
TABS,ioos:station:wmo:42044:1,2004-12-01T17:00:00Z,26.1914,-97.0507,2.0,177.6011747,15.05318903,-99999.0,'11111222,11111222,99999999' 
TABS,ioos:station:wmo:42044:1,2004-12-01T17:30:00Z,26.1914,-97.0507,2.0,170.9756301,18.48885069,-99999.0,'11111222,11111222,99999999' 
TABS,ioos:station:wmo:42044:1,2004-12-01T18:00:00Z,26.1914,-97.0507,2.0,184.8209222,18.20440881,-99999.0,'11111222,11111222,99999999' 
TABS,ioos:station:wmo:42044:1,2004-12-01T18:30:00Z,26.1914,-97.0507,2.0,167.9456702,18.72282564,-99999.0,'11111222,11111222,99999999' 
TABS,ioos:station:wmo:42044:1,2004-12-01T19:00:00Z,26.1914,-97.0507,2.0,176.7931321,18.94967018,-99999.0,'11111222,11111222,99999999' 
TABS,ioos:station:wmo:42044:1,2004-12-01T19:30:00Z,26.1914,-97.0507,2.0,177.239982,19.52264326,-99999.0,'11111222,11111222,99999999' 
TABS,ioos:station:wmo:42044:1,2004-12-01T20:00:00Z,26.1914,-97.0507,2.0,179.1496917,22.24244816,-99999.0,'11111222,11111222,99999999' 
TABS,ioos:station:wmo:42044:1,2004-12-01T20:30:00Z,26.1914,-97.0507,2.0,180.8968297,19.1623485,-99999.0,'11111222,11111222,99999999' 
TABS,ioos:station:wmo:42044:1,2004-12-01T21:00:00Z,26.1914,-97.0507,2.0,180.030169,18.86000265,-99999.0,'11111222,11111222,99999999' 
TABS,ioos:station:wmo:42044:1,2004-12-01T21:30:00Z,26.1914,-97.0507,2.0,177.1347178,21.40675828,-99999.0,'11111222,11111222,99999999' 
TABS,ioos:station:wmo:42044:1,2004-12-01T22:00:00Z,26.1914,-97.0507,2.0,176.1263089,21.1683561,-99999.0,'11111222,11111222,99999999' 
TABS,ioos:station:wmo:42044:1,2004-12-01T22:30:00Z,26.1914,-97.0507,2.0,175.8599586,17.31517831,-99999.0,'11111222,11111222,99999999' 
TABS,ioos:station:wmo:42044:1,2004-12-01T23:00:00Z,26.1914,-97.0507,2.0,181.9053106,21.05164127,-99999.0,'11111222,11111222,99999999' 
TABS,ioos:station:wmo:42044:1,2004-12-01T23:30:00Z,26.1914,-97.0507,2.0,181.4819528,20.87698494,-99999.0,'11111222,11111222,99999999' 
TABS,ioos:station:wmo:42044:1,2004-12-02T00:00:00Z,26.1914,-97.0507,2.0,179.5526131,20.50062438,-99999.0,'11111222,11111222,99999999' 
TABS,ioos:station:wmo:42044:1,2004-12-02T00:30:00Z,26.1914,-97.0507,2.0,178.9617352,20.42335183,-99999.0,'11111222,11111222,99999999' 
TABS,ioos:station:wmo:42044:1,2004-12-02T01:00:00Z,26.1914,-97.0507,2.0,180.054855,20.81000961,-99999.0,'11111222,11111222,99999999' 
TABS,ioos:station:wmo:42044:1,2004-12-02T01:30:00Z,26.1914,-97.0507,2.0,182.7924854,22.98730084,-99999.0,'11111222,11111222,99999999' 
TABS,ioos:station:wmo:42044:1,2004-12-02T02:00:00Z,26.1914,-97.0507,2.0,175.287349,20.44912712,-99999.0,'11111222,11111222,99999999' 
TABS,ioos:station:wmo:42044:1,2004-12-02T02:30:00Z,26.1914,-97.0507,2.0,176.1673972,20.79650451,-99999.0,'11111222,11111222,99999999' 
TABS,ioos:station:wmo:42044:1,2004-12-02T03:00:00Z,26.1914,-97.0507,2.0,174.876462,22.62037356,-99999.0,'11111222,11111222,99999999' 
TABS,ioos:station:wmo:42044:1,2004-12-02T03:30:00Z,26.1914,-97.0507,2.0,173.7763042,22.23101662,-99999.0,'11111222,11111222,99999999' 
TABS,ioos:station:wmo:42044:1,2004-12-02T04:00:00Z,26.1914,-97.0507,2.0,175.3266121,22.09344699,-99999.0,'11111222,11111222,99999999' 
TABS,ioos:station:wmo:42044:1,2004-12-02T04:30:00Z,26.1914,-97.0507,2.0,172.6696198,21.47551164,-99999.0,'11111222,11111222,99999999' 
TABS,ioos:station:wmo:42044:1,2004-12-02T05:00:00Z,26.1914,-97.0507,2.0,176.9009029,22.38272995,-99999.0,'11111222,11111222,99999999' 
TABS,ioos:station:wmo:42044:1,2004-12-02T05:30:00Z,26.1914,-97.0507,2.0,170.984237,26.35560282,-99999.0,'11111222,11111222,99999999' 
TABS,ioos:station:wmo:42044:1,2004-12-02T06:00:00Z,26.1914,-97.0507,2.0,173.1663682,21.93582686,-99999.0,'11111222,11111222,99999999' 
TABS,ioos:station:wmo:42044:1,2004-12-02T06:30:00Z,26.1914,-97.0507,2.0,170.5724661,24.23734721,-99999.0,'11111222,11111222,99999999' 
TABS,ioos:station:wmo:42044:1,2004-12-02T07:30:00Z,26.1914,-97.0507,2.0,179.7407694,22.12022604,-99999.0,'11111222,11111222,99999999' 
TABS,ioos:station:wmo:42044:1,2004-12-02T08:00:00Z,26.1914,-97.0507,2.0,178.8880813,24.22455985,-99999.0,'11111222,11111222,99999999' 
TABS,ioos:station:wmo:42044:1,2004-12-02T08:30:00Z,26.1914,-97.0507,2.0,170.8675024,23.69028704,-99999.0,'11111222,11111222,99999999' 
TABS,ioos:station:wmo:42044:1,2004-12-02T09:00:00Z,26.1914,-97.0507,2.0,173.2246725,21.53035067,-99999.0,'11111222,11111222,99999999' 
TABS,ioos:station:wmo:42044:1,2004-12-02T09:30:00Z,26.1914,-97.0507,2.0,183.8346638,21.97921291,-99999.0,'11111222,11111222,99999999' 
TABS,ioos:station:wmo:42044:1,2004-12-02T10:00:00Z,26.1914,-97.0507,2.0,175.9643114,21.17249395,-99999.0,'11111222,11111222,99999999' 
TABS,ioos:station:wmo:42044:1,2004-12-02T10:30:00Z,26.1914,-97.0507,2.0,182.4458262,19.44771966,-99999.0,'11111222,11111222,99999999' 
TABS,ioos:station:wmo:42044:1,2004-12-02T11:00:00Z,26.1914,-97.0507,2.0,183.8031733,21.40714834,-99999.0,'11111222,11111222,99999999' 
TABS,ioos:station:wmo:42044:1,2004-12-02T11:30:00Z,26.1914,-97.0507,2.0,172.534229,20.24158591,-99999.0,'11111222,11111222,99999999' 
TABS,ioos:station:wmo:42044:1,2004-12-02T12:00:00Z,26.1914,-97.0507,2.0,183.892527,21.80029587,-99999.0,'11111222,11111222,99999999' 
TABS,ioos:station:wmo:42044:1,2004-12-02T12:30:00Z,26.1914,-97.0507,2.0,173.0391487,21.61934319,-99999.0,'11111222,11111222,99999999' 
TABS,ioos:station:wmo:42044:1,2004-12-02T13:00:00Z,26.1914,-97.0507,2.0,178.9830019,18.03283949,-99999.0,'11111222,11111222,99999999' 
TABS,ioos:station:wmo:42044:1,2004-12-02T13:30:00Z,26.1914,-97.0507,2.0,169.1097326,19.0022025,-99999.0,'11111222,11111222,99999999' 
TABS,ioos:station:wmo:42044:1,2004-12-02T14:00:00Z,26.1914,-97.0507,2.0,174.5776174,20.95375861,-99999.0,'11111222,11111222,99999999' 
TABS,ioos:station:wmo:42044:1,2004-12-02T14:30:00Z,26.1914,-97.0507,2.0,181.6699237,18.5278709,-99999.0,'11111222,11111222,99999999' 
TABS,ioos:station:wmo:42044:1,2004-12-02T15:00:00Z,26.1914,-97.0507,2.0,178.2449907,20.89980143,-99999.0,'11111222,11111222,99999999' 
TABS,ioos:station:wmo:42044:1,2004-12-02T15:30:00Z,26.1914,-97.0507,2.0,174.7625566,20.59598262,-99999.0,'11111222,11111222,99999999' 
TABS,ioos:station:wmo:42044:1,2004-12-02T16:00:00Z,26.1914,-97.0507,2.0,178.9267668,21.89383932,-99999.0,'11111222,11111222,99999999' 
TABS,ioos:station:wmo:42044:1,2004-12-02T16:30:00Z,26.1914,-97.0507,2.0,178.244846,18.93888328,-99999.0,'11111222,11111222,99999999' 
TABS,ioos:station:wmo:42044:1,2004-12-02T17:00:00Z,26.1914,-97.0507,2.0,170.1874288,18.83554353,-99999.0,'11111222,11111222,99999999' 
TABS,ioos:station:wmo:42044:1,2004-12-02T17:30:00Z,26.1914,-97.0507,2.0,178.5879645,19.07579094,-99999.0,'11111222,11111222,99999999' 
TABS,ioos:station:wmo:42044:1,2004-12-02T18:00:00Z,26.1914,-97.0507,2.0,183.3031935,21.3454679,-99999.0,'11111222,11111222,99999999' 
TABS,ioos:station:wmo:42044:1,2004-12-02T18:30:00Z,26.1914,-97.0507,2.0,186.2048753,22.48171257,-99999.0,'11111222,11111222,99999999' 
TABS,ioos:station:wmo:42044:1,2004-12-02T19:00:00Z,26.1914,-97.0507,2.0,183.7541029,21.6865396,-99999.0,'11111222,11111222,99999999' 
TABS,ioos:station:wmo:42044:1,2004-12-02T19:30:00Z,26.1914,-97.0507,2.0,187.8731704,22.41126726,-99999.0,'11111222,11111222,99999999' 
TABS,ioos:station:wmo:42044:1,2004-12-02T20:00:00Z,26.1914,-97.0507,2.0,193.0420698,22.51069301,-99999.0,'11111222,11111222,99999999' 
TABS,ioos:station:wmo:42044:1,2004-12-02T20:30:00Z,26.1914,-97.0507,2.0,191.7763107,22.63647499,-99999.0,'11111222,11111222,99999999' 
TABS,ioos:station:wmo:42044:1,2004-12-02T21:00:00Z,26.1914,-97.0507,2.0,193.9061854,23.55026964,-99999.0,'11111222,11111222,99999999' 
TABS,ioos:station:wmo:42044:1,2004-12-02T21:30:00Z,26.1914,-97.0507,2.0,191.1527974,24.34987064,-99999.0,'11111222,11111222,99999999' 
TABS,ioos:station:wmo:42044:1,2004-12-02T22:00:00Z,26.1914,-97.0507,2.0,192.2002297,24.22719134,-99999.0,'11111222,11111222,99999999' 
TABS,ioos:station:wmo:42044:1,2004-12-02T22:30:00Z,26.1914,-97.0507,2.0,198.7363207,26.43068293,-99999.0,'11111222,11111222,99999999' 
TABS,ioos:station:wmo:42044:1,2004-12-02T23:00:00Z,26.1914,-97.0507,2.0,201.4960979,25.46104868,-99999.0,'11111222,11111222,99999999' 
TABS,ioos:station:wmo:42044:1,2004-12-02T23:30:00Z,26.1914,-97.0507,2.0,203.8285358,26.97985174,-99999.0,'11111222,11111222,99999999' 
TABS,ioos:station:wmo:42044:1,2004-12-03T00:00:00Z,26.1914,-97.0507,2.0,195.4923106,26.2435554,-99999.0,'11111222,11111222,99999999' 
TABS,ioos:station:wmo:42044:1,2004-12-03T00:30:00Z,26.1914,-97.0507,2.0,193.4221019,24.90013655,-99999.0,'11111222,11111222,99999999' 
TABS,ioos:station:wmo:42044:1,2004-12-03T01:00:00Z,26.1914,-97.0507,2.0,180.9021738,27.30338624,-99999.0,'11111222,11111222,99999999' 
TABS,ioos:station:wmo:42044:1,2004-12-03T01:30:00Z,26.1914,-97.0507,2.0,177.9629826,26.16653206,-99999.0,'11111222,11111222,99999999' 
TABS,ioos:station:wmo:42044:1,2004-12-03T02:00:00Z,26.1914,-97.0507,2.0,183.8612833,27.32202774,-99999.0,'11111222,11111222,99999999' 
TABS,ioos:station:wmo:42044:1,2004-12-03T02:30:00Z,26.1914,-97.0507,2.0,175.6779971,27.99961607,-99999.0,'11111222,11111222,99999999' 
TABS,ioos:station:wmo:42044:1,2004-12-03T03:00:00Z,26.1914,-97.0507,2.0,172.4010032,27.29973809,-99999.0,'11111222,11111222,99999999' 
TABS,ioos:station:wmo:42044:1,2004-12-03T03:30:00Z,26.1914,-97.0507,2.0,171.4879755,29.92966589,-99999.0,'11111222,11111222,99999999' 
TABS,ioos:station:wmo:42044:1,2004-12-03T04:00:00Z,26.1914,-97.0507,2.0,165.8518158,28.59742995,-99999.0,'11111222,11111222,99999999' 
TABS,ioos:station:wmo:42044:1,2004-12-03T04:30:00Z,26.1914,-97.0507,2.0,172.9071185,30.77550325,-99999.0,'11111222,11111222,99999999' 
TABS,ioos:station:wmo:42044:1,2004-12-03T05:00:00Z,26.1914,-97.0507,2.0,183.0674695,34.00873417,-99999.0,'11111222,11111222,99999999' 
TABS,ioos:station:wmo:42044:1,2004-12-03T05:30:00Z,26.1914,-97.0507,2.0,182.5601556,32.68262688,-99999.0,'11111222,11111222,99999999' 
TABS,ioos:station:wmo:42044:1,2004-12-03T06:00:00Z,26.1914,-97.0507,2.0,183.2117389,34.62439169,-99999.0,'11111222,11111222,99999999' 
TABS,ioos:station:wmo:42044:1,2004-12-03T06:30:00Z,26.1914,-97.0507,2.0,191.6098796,33.68929207,-99999.0,'11111222,11111222,99999999' 
TABS,ioos:station:wmo:42044:1,2004-12-03T07:00:00Z,26.1914,-97.0507,2.0,184.1043555,36.60388641,-99999.0,'11111222,11111222,99999999' 
TABS,ioos:station:wmo:42044:1,2004-12-03T07:30:00Z,26.1914,-97.0507,2.0,181.8183348,36.86856927,-99999.0,'11111222,11111222,99999999' 
TABS,ioos:station:wmo:42044:1,2004-12-03T08:00:00Z,26.1914,-97.0507,2.0,178.3783256,33.57344337,-99999.0,'11111222,11111222,99999999' 
TABS,ioos:station:wmo:42044:1,2004-12-03T08:30:00Z,26.1914,-97.0507,2.0,177.5262737,31.04892913,-99999.0,'11111222,11111222,99999999' 
TABS,ioos:station:wmo:42044:1,2004-12-03T09:00:00Z,26.1914,-97.0507,2.0,177.2610833,30.76513936,-99999.0,'11111222,11111222,99999999' 
TABS,ioos:station:wmo:42044:1,2004-12-03T09:30:00Z,26.1914,-97.0507,2.0,184.9516668,30.58415439,-99999.0,'11111222,11111222,99999999' 
TABS,ioos:station:wmo:42044:1,2004-12-03T10:00:00Z,26.1914,-97.0507,2.0,181.8636175,30.74626644,-99999.0,'11111222,11111222,99999999' 
TABS,ioos:station:wmo:42044:1,2004-12-03T10:30:00Z,26.1914,-97.0507,2.0,183.6796739,32.09617578,-99999.0,'11111222,11111222,99999999' 
TABS,ioos:station:wmo:42044:1,2004-12-03T11:00:00Z,26.1914,-97.0507,2.0,182.1577939,28.14996448,-99999.0,'11111222,11111222,99999999' 
TABS,ioos:station:wmo:42044:1,2004-12-03T11:30:00Z,26.1914,-97.0507,2.0,185.236913,27.93662292,-99999.0,'11111222,11111222,99999999' 
TABS,ioos:station:wmo:42044:1,2004-12-03T12:00:00Z,26.1914,-97.0507,2.0,182.9818943,27.48722249,-99999.0,'11111222,11111222,99999999' 
TABS,ioos:station:wmo:42044:1,2004-12-03T12:30:00Z,26.1914,-97.0507,2.0,181.3388732,29.09794666,-99999.0,'11111222,11111222,99999999' 
TABS,ioos:station:wmo:42044:1,2004-12-03T13:00:00Z,26.1914,-97.0507,2.0,179.4041448,30.78166337,-99999.0,'11111222,11111222,99999999' 
TABS,ioos:station:wmo:42044:1,2004-12-03T13:30:00Z,26.1914,-97.0507,2.0,179.1216893,29.36344837,-99999.0,'11111222,11111222,99999999' 
TABS,ioos:station:wmo:42044:1,2004-12-03T14:00:00Z,26.1914,-97.0507,2.0,189.3239632,27.95941702,-99999.0,'11111222,11111222,99999999' 
TABS,ioos:station:wmo:42044:1,2004-12-03T14:30:00Z,26.1914,-97.0507,2.0,185.5010499,24.51290476,-99999.0,'11111222,11111222,99999999' 
TABS,ioos:station:wmo:42044:1,2004-12-03T15:00:00Z,26.1914,-97.0507,2.0,183.9471433,27.16444183,-99999.0,'11111222,11111222,99999999' 
TABS,ioos:station:wmo:42044:1,2004-12-03T15:30:00Z,26.1914,-97.0507,2.0,179.507289,27.9210315,-99999.0,'11111222,11111222,99999999' 
TABS,ioos:station:wmo:42044:1,2004-12-03T16:00:00Z,26.1914,-97.0507,2.0,186.773375,24.67221312,-99999.0,'11111222,11111222,99999999' 
TABS,ioos:station:wmo:42044:1,2004-12-03T16:30:00Z,26.1914,-97.0507,2.0,187.7949666,24.9202829,-99999.0,'11111222,11111222,99999999' 
TABS,ioos:station:wmo:42044:1,2004-12-03T17:00:00Z,26.1914,-97.0507,2.0,190.0415296,22.59615233,-99999.0,'11111222,11111222,99999999' 
TABS,ioos:station:wmo:42044:1,2004-12-03T17:30:00Z,26.1914,-97.0507,2.0,193.4649661,24.09226017,-99999.0,'11111222,11111222,99999999' 
TABS,ioos:station:wmo:42044:1,2004-12-03T18:00:00Z,26.1914,-97.0507,2.0,192.9439763,19.59801265,-99999.0,'11111222,11111222,99999999' 
TABS,ioos:station:wmo:42044:1,2004-12-03T18:30:00Z,26.1914,-97.0507,2.0,191.6222875,22.28696929,-99999.0,'11111222,11111222,99999999' 
TABS,ioos:station:wmo:42044:1,2004-12-03T19:00:00Z,26.1914,-97.0507,2.0,192.9880675,20.42249005,-99999.0,'11111222,11111222,99999999' 
TABS,ioos:station:wmo:42044:1,2004-12-03T19:30:00Z,26.1914,-97.0507,2.0,204.0018144,19.10171197,-99999.0,'11111222,11111222,99999999' 
TABS,ioos:station:wmo:42044:1,2004-12-03T20:00:00Z,26.1914,-97.0507,2.0,190.6891048,19.19305083,-99999.0,'11111222,11111222,99999999' 
TABS,ioos:station:wmo:42044:1,2004-12-03T20:30:00Z,26.1914,-97.0507,2.0,203.5128058,18.89921956,-99999.0,'11111222,11111222,99999999' 
TABS,ioos:station:wmo:42044:1,2004-12-03T21:00:00Z,26.1914,-97.0507,2.0,194.8565156,18.29148709,-99999.0,'11111222,11111222,99999999' 
TABS,ioos:station:wmo:42044:1,2004-12-03T21:30:00Z,26.1914,-97.0507,2.0,198.7589685,17.87980425,-99999.0,'11111222,11111222,99999999' 
TABS,ioos:station:wmo:42044:1,2004-12-03T22:00:00Z,26.1914,-97.0507,2.0,194.5269534,19.81346259,-99999.0,'11111222,11111222,99999999' 
TABS,ioos:station:wmo:42044:1,2004-12-03T22:30:00Z,26.1914,-97.0507,2.0,204.4367391,20.47414223,-99999.0,'11111222,11111222,99999999' 
TABS,ioos:station:wmo:42044:1,2004-12-03T23:00:00Z,26.1914,-97.0507,2.0,201.1793928,19.67929369,-99999.0,'11111222,11111222,99999999' 
TABS,ioos:station:wmo:42044:1,2004-12-03T23:30:00Z,26.1914,-97.0507,2.0,192.4813222,18.41523283,-99999.0,'11111222,11111222,99999999' 
TABS,ioos:station:wmo:42044:1,2004-12-04T00:00:00Z,26.1914,-97.0507,2.0,177.6266328,20.5276058,-99999.0,'11111222,11111222,99999999' 
TABS,ioos:station:wmo:42044:1,2004-12-04T00:30:00Z,26.1914,-97.0507,2.0,180.6733137,26.37182208,-99999.0,'11111222,11111222,99999999' 
TABS,ioos:station:wmo:42044:1,2004-12-04T01:00:00Z,26.1914,-97.0507,2.0,176.4492275,30.51857959,-99999.0,'11111222,11111222,99999999' 
TABS,ioos:station:wmo:42044:1,2004-12-04T01:30:00Z,26.1914,-97.0507,2.0,176.6538369,31.18315731,-99999.0,'11111222,11111222,99999999' 
TABS,ioos:station:wmo:42044:1,2004-12-04T02:00:00Z,26.1914,-97.0507,2.0,175.4593695,37.51774114,-99999.0,'11111222,11111222,99999999' 
TABS,ioos:station:wmo:42044:1,2004-12-04T02:30:00Z,26.1914,-97.0507,2.0,179.4942993,36.27141161,-99999.0,'11111222,11111222,99999999' 
TABS,ioos:station:wmo:42044:1,2004-12-04T03:00:00Z,26.1914,-97.0507,2.0,170.264926,39.74226088,-99999.0,'11111222,11111222,99999999' 
TABS,ioos:station:wmo:42044:1,2004-12-04T03:30:00Z,26.1914,-97.0507,2.0,172.4736373,36.49439409,-99999.0,'11111222,11111222,99999999' 
TABS,ioos:station:wmo:42044:1,2004-12-04T04:00:00Z,26.1914,-97.0507,2.0,170.1385533,37.77815903,-99999.0,'11111222,11111222,99999999' 
TABS,ioos:station:wmo:42044:1,2004-12-04T04:30:00Z,26.1914,-97.0507,2.0,170.2956332,42.06185564,-99999.0,'11111222,11111222,99999999' 
TABS,ioos:station:wmo:42044:1,2004-12-04T05:00:00Z,26.1914,-97.0507,2.0,175.4521976,44.26936864,-99999.0,'11111222,11111222,99999999' 
TABS,ioos:station:wmo:42044:1,2004-12-04T05:30:00Z,26.1914,-97.0507,2.0,170.1850258,45.69885119,-99999.0,'11111222,11111222,99999999' 
TABS,ioos:station:wmo:42044:1,2004-12-04T06:00:00Z,26.1914,-97.0507,2.0,177.31727,42.9470616,-99999.0,'11111222,11111222,99999999' 
TABS,ioos:station:wmo:42044:1,2004-12-04T06:30:00Z,26.1914,-97.0507,2.0,168.7348177,50.01355216,-99999.0,'11111222,11111222,99999999' 
TABS,ioos:station:wmo:42044:1,2004-12-04T07:00:00Z,26.1914,-97.0507,2.0,169.3074347,46.94508494,-99999.0,'11111222,11111222,99999999' 
TABS,ioos:station:wmo:42044:1,2004-12-04T07:30:00Z,26.1914,-97.0507,2.0,170.3287169,48.27608311,-99999.0,'11111222,11111222,99999999' 
TABS,ioos:station:wmo:42044:1,2004-12-04T08:00:00Z,26.1914,-97.0507,2.0,172.9510783,47.5090665,-99999.0,'11111222,11111222,99999999' 
TABS,ioos:station:wmo:42044:1,2004-12-04T08:30:00Z,26.1914,-97.0507,2.0,169.2991315,46.47822931,-99999.0,'11111222,11111222,99999999' 
TABS,ioos:station:wmo:42044:1,2004-12-04T09:00:00Z,26.1914,-97.0507,2.0,168.2254593,46.21236306,-99999.0,'11111222,11111222,99999999' 
TABS,ioos:station:wmo:42044:1,2004-12-04T09:30:00Z,26.1914,-97.0507,2.0,168.8799386,45.52468891,-99999.0,'11111222,11111222,99999999' 
TABS,ioos:station:wmo:42044:1,2004-12-04T10:00:00Z,26.1914,-97.0507,2.0,175.6882021,41.36707145,-99999.0,'11111222,11111222,99999999' 
TABS,ioos:station:wmo:42044:1,2004-12-04T10:30:00Z,26.1914,-97.0507,2.0,165.7147798,48.59247061,-99999.0,'11111222,11111222,99999999' 
TABS,ioos:station:wmo:42044:1,2004-12-04T11:00:00Z,26.1914,-97.0507,2.0,175.1244499,42.59410757,-99999.0,'11111222,11111222,99999999' 
TABS,ioos:station:wmo:42044:1,2004-12-04T11:30:00Z,26.1914,-97.0507,2.0,173.48695,42.14196602,-99999.0,'11111222,11111222,99999999' 
TABS,ioos:station:wmo:42044:1,2004-12-04T12:00:00Z,26.1914,-97.0507,2.0,166.8235194,47.51080403,-99999.0,'11111222,11111222,99999999' 
TABS,ioos:station:wmo:42044:1,2004-12-04T12:30:00Z,26.1914,-97.0507,2.0,168.6191452,46.06575409,-99999.0,'11111222,11111222,99999999' 
TABS,ioos:station:wmo:42044:1,2004-12-04T13:00:00Z,26.1914,-97.0507,2.0,173.4902032,41.45728042,-99999.0,'11111222,11111222,99999999' 
TABS,ioos:station:wmo:42044:1,2004-12-04T13:30:00Z,26.1914,-97.0507,2.0,172.4801845,43.4032637,-99999.0,'11111222,11111222,99999999' 
TABS,ioos:station:wmo:42044:1,2004-12-04T14:00:00Z,26.1914,-97.0507,2.0,171.8006326,43.40365998,-99999.0,'11111222,11111222,99999999' 
TABS,ioos:station:wmo:42044:1,2004-12-04T14:30:00Z,26.1914,-97.0507,2.0,167.6276632,38.08445352,-99999.0,'11111222,11111222,99999999' 
TABS,ioos:station:wmo:42044:1,2004-12-04T15:00:00Z,26.1914,-97.0507,2.0,176.9162296,41.26975285,-99999.0,'11111222,11111222,99999999' 
TABS,ioos:station:wmo:42044:1,2004-12-04T15:30:00Z,26.1914,-97.0507,2.0,173.2287297,39.35449148,-99999.0,'11111222,11111222,99999999' 
TABS,ioos:station:wmo:42044:1,2004-12-04T16:00:00Z,26.1914,-97.0507,2.0,164.9421232,39.4546892,-99999.0,'11111222,11111222,99999999' 
TABS,ioos:station:wmo:42044:1,2004-12-04T16:30:00Z,26.1914,-97.0507,2.0,169.787441,34.91311645,-99999.0,'11111222,11111222,99999999' 